N3LF Weather Reports


Display with metric or nautical units.
time (UTC)temp
F
wind
direction
speed
MPH
gust
MPH
rain 1hr
in
rain 24hr
in
rain mn
in
humidity
%
barometer
mb
20260510213843 82 30 2.0 4.0 0.00 0.00 0.00 49 1018.2
20260510213339 82 186 1.0 3.0 0.00 0.00 0.00 51 1018.1
20260510212835 83 60 1.0 2.0 0.00 0.00 0.00 51 1018.3
20260510212333 82 330 1.0 4.0 0.00 0.00 0.00 49 1018.4
20260510211829 81 322 2.0 7.0 0.00 0.00 0.00 51 1018.3
20260510211325 80 24 3.0 7.0 0.00 0.00 0.00 54 1018.4
20260510210821 81 236 2.0 3.0 0.00 0.00 0.00 51 1018.1
20260510210316 81 217 2.0 3.0 0.00 0.00 0.00 53 1018.5
20260510205816 80 27 2.0 3.0 0.00 0.00 0.00 53 1018.4
20260510205311 79 334 2.0 3.0 0.00 0.00 0.00 55 1018.3
20260510204808 81 323 3.0 7.0 0.00 0.00 0.00 53 1018.4
20260510204304 81 350 2.0 2.0 0.00 0.00 0.00 53 1018.3
20260510203801 80 260 2.0 6.0 0.00 0.00 0.00 54 1018.4
20260510203259 81 309 2.0 4.0 0.00 0.00 0.00 51 1018.3
20260510202758 81 44 3.0 6.0 0.00 0.00 0.00 52 1018.4
20260510202254 82 205 1.0 7.0 0.00 0.00 0.00 52 1018.5
20260510201751 82 341 1.0 7.0 0.00 0.00 0.00 53 1018.4
20260510201248 80 232 2.0 2.0 0.00 0.00 0.00 52 1018.4
20260510200744 82 180 2.0 4.0 0.00 0.00 0.00 52 1018.5
20260510200242 82 351 1.0 3.0 0.00 0.00 0.00 52 1018.6
20260510195738 81 272 1.0 8.0 0.00 0.00 0.00 51 1018.6
20260510195235 83 208 6.0 8.0 0.00 0.00 0.00 49 1018.6
20260510194734 82 230 3.0 6.0 0.00 0.00 0.00 51 1018.5
20260510194232 81 44 2.0 4.0 0.00 0.00 0.00 50 1018.6
20260510193727 83 250 6.0 8.0 0.00 0.00 0.00 49 1018.5
20260510193222 82 318 3.0 4.0 0.00 0.00 0.00 51 1018.6
20260510192718 82 64 1.0 4.0 0.00 0.00 0.00 49 1018.7
20260510192213 82 15 6.0 8.0 0.00 0.00 0.00 51 1018.8
20260510191710 81 326 4.0 6.0 0.00 0.00 0.00 51 1018.7
20260510191206 81 23 2.0 4.0 0.00 0.00 0.00 52 1018.4
20260510190704 82 243 1.0 4.0 0.00 0.00 0.00 53 1018.4
20260510190201 82 45 2.0 8.0 0.00 0.00 0.00 50 1018.5
20260510185658 82 246 0.0 6.0 0.00 0.00 0.00 47 1018.6
20260510185156 82 338 3.0 4.0 0.00 0.00 0.00 50 1018.6
20260510184652 83 36 4.0 6.0 0.00 0.00 0.00 45 1018.5
20260510184148 82 24 0.0 2.0 0.00 0.00 0.00 43 1018.6
20260510183645 82 339 4.0 4.0 0.00 0.00 0.00 41 1018.8
20260510183139 83 174 2.0 3.0 0.00 0.00 0.00 43 1018.6
20260510182636 82 229 7.0 9.0 0.00 0.00 0.00 43 1018.6
20260510182131 82 82 1.0 4.0 0.00 0.00 0.00 42 1018.6
20260510181629 82 225 4.0 10.0 0.00 0.00 0.00 41 1018.7
20260510181125 82 263 2.0 2.0 0.00 0.00 0.00 39 1018.8
20260510180621 81 203 2.0 4.0 0.00 0.00 0.00 42 1018.7
20260510180119 82 188 4.0 9.0 0.00 0.00 0.00 39 1018.9
20260510175615 82 218 1.0 6.0 0.00 0.00 0.00 43 1018.9
20260510175110 81 192 3.0 6.0 0.00 0.00 0.00 44 1018.8
20260510174609 80 268 4.0 7.0 0.00 0.00 0.00 44 1018.9
20260510174106 81 258 2.0 6.0 0.00 0.00 0.00 42 1019.0
20260510173601 81 266 5.0 9.0 0.00 0.00 0.00 42 1019.0
20260510173058 82 272 8.0 10.0 0.00 0.00 0.00 41 1019.1
20260510172553 81 243 4.0 6.0 0.00 0.00 0.00 44 1019.1
20260510172050 81 230 2.0 6.0 0.00 0.00 0.00 47 1019.4
20260510171546 81 259 1.0 4.0 0.00 0.00 0.00 44 1019.1
20260510171044 81 328 2.0 6.0 0.00 0.00 0.00 47 1019.3
20260510170540 79 284 3.0 6.0 0.00 0.00 0.00 47 1019.2
20260510170037 81 231 4.0 7.0 0.00 0.00 0.00 49 1019.2
20260510165532 80 6 4.0 8.0 0.00 0.00 0.00 48 1019.1
20260510165029 80 196 4.0 10.0 0.00 0.00 0.00 47 1019.2
20260510164526 80 214 3.0 7.0 0.00 0.00 0.00 48 1019.1
20260510164023 81 251 7.0 14.0 0.00 0.00 0.00 46 1019.1
20260510163518 80 209 4.0 6.0 0.00 0.00 0.00 48 1019.2
20260510163015 80 258 3.0 7.0 0.00 0.00 0.00 46 1019.2
20260510162510 80 309 4.0 7.0 0.00 0.00 0.00 47 1019.1
20260510162007 80 112 4.0 7.0 0.00 0.00 0.00 46 1019.2
20260510161503 80 218 6.0 7.0 0.00 0.00 0.00 46 1019.1
20260510161000 79 227 2.0 2.0 0.00 0.00 0.00 46 1019.2
20260510160457 79 245 4.0 9.0 0.00 0.00 0.00 46 1018.9
20260510155954 80 343 3.0 8.0 0.00 0.00 0.00 47 1019.0
20260510155452 78 15 6.0 9.0 0.00 0.00 0.00 46 1019.0
20260510154949 79 228 3.0 8.0 0.00 0.00 0.00 47 1019.1
20260510154445 79 191 1.0 3.0 0.00 0.00 0.00 49 1019.0
20260510153944 78 202 2.0 8.0 0.00 0.00 0.00 48 1018.8
20260510153440 79 301 4.0 7.0 0.00 0.00 0.00 49 1018.9
20260510152937 79 217 1.0 2.0 0.00 0.00 0.00 50 1018.8
20260510152435 78 226 2.0 6.0 0.00 0.00 0.00 53 1018.8
20260510151931 78 190 2.0 2.0 0.00 0.00 0.00 53 1018.9
20260510151428 77 131 0.0 4.0 0.00 0.00 0.00 52 1018.6
20260510150924 77 218 2.0 2.0 0.00 0.00 0.00 55 1018.8
20260510150420 76 237 1.0 4.0 0.00 0.00 0.00 56 1018.7
20260510145916 75 229 2.0 3.0 0.00 0.00 0.00 57 1018.8
20260510145413 75 205 0.0 4.0 0.00 0.00 0.00 59 1018.6
20260510144909 75 294 1.0 3.0 0.00 0.00 0.00 58 1018.5
20260510144406 75 181 2.0 3.0 0.00 0.00 0.00 65 1019.0
20260510143900 74 332 2.0 3.0 0.00 0.00 0.00 65 1018.9
20260510143357 74 342 3.0 3.0 0.00 0.00 0.00 67 1018.9
20260510142854 73 358 2.0 2.0 0.00 0.00 0.00 67 1019.0
20260510142350 73 327 1.0 4.0 0.00 0.00 0.00 73 1019.0
20260510141847 72 192 0.0 2.0 0.00 0.00 0.00 74 1019.0
20260510141345 72 235 1.0 2.0 0.00 0.00 0.00 76 1018.9
20260510140842 71 231 0.0 1.0 0.00 0.00 0.00 77 1018.9
20260510140338 71 156 1.0 2.0 0.00 0.00 0.00 78 1018.9
20260510135837 70 173 1.0 1.0 0.00 0.00 0.00 80 1018.9
20260510135332 70 213 0.0 1.0 0.00 0.00 0.00 80 1018.7
20260510134831 69 194 1.0 2.0 0.00 0.00 0.00 82 1019.1
20260510134327 68 200 0.0 1.0 0.00 0.00 0.00 83 1018.8
20260510133823 67 129 0.0 0.0 0.00 0.00 0.00 86 1018.8
20260510133319 67 194 0.0 0.0 0.00 0.00 0.00 85 1019.0
20260510132815 66 195 0.0 1.0 0.00 0.00 0.00 87 1019.0
20260510132314 65 197 0.0 0.0 0.00 0.00 0.00 88 1019.0
20260510131810 65 194 1.0 1.0 0.00 0.00 0.00 88 1018.7
20260510131308 64 142 0.0 1.0 0.00 0.00 0.00 88 1018.7
20260510130804 64 141 1.0 1.0 0.00 0.00 0.00 90 1018.8
20260510130301 63 141 1.0 1.0 0.00 0.00 0.00 90 1018.5
20260510125757 62 198 0.0 1.0 0.00 0.00 0.00 91 1018.6
20260510125253 62 321 1.0 1.0 0.00 0.00 0.00 92 1018.6
20260510124750 61 207 0.0 2.0 0.00 0.00 0.00 92 1018.7
20260510124248 62 347 0.0 1.0 0.00 0.00 0.00 91 1018.7
20260510123743 60 197 0.0 0.0 0.00 0.00 0.00 92 1018.7
20260510123239 59 293 1.0 1.0 0.00 0.00 0.00 96 1018.7
20260510122736 57 206 0.0 2.0 0.00 0.00 0.00 98 1018.6
20260510122232 57 350 2.0 3.0 0.00 0.00 0.00 99 1018.8
20260510121728 56 206 1.0 2.0 0.00 0.00 0.00 99 1018.5
20260510121226 55 23 0.0 2.0 0.00 0.00 0.00 99 1018.6
20260510120723 55 179 2.0 2.0 0.00 0.00 0.00 99 1018.5
20260510120220 54 207 0.0 1.0 0.00 0.00 0.00 99 1018.4
20260510115715 53 269 0.0 1.0 0.00 0.00 0.00 99 1018.5
20260510115214 53 22 0.0 2.0 0.00 0.00 0.00 99 1018.2
20260510114708 52 218 0.0 1.0 0.00 0.00 0.00 99 1018.2
20260510114206 52 2 2.0 6.0 0.00 0.00 0.00 99 1018.5
20260510113700 52 195 2.0 2.0 0.00 0.00 0.00 99 1018.1
20260510113158 52 297 1.0 1.0 0.00 0.00 0.00 99 1017.8
20260510112655 51 203 1.0 2.0 0.00 0.00 0.00 99 1017.6
20260510112152 52 9 3.0 4.0 0.00 0.00 0.00 99 1017.7
20260510111648 52 300 0.0 0.0 0.00 0.00 0.00 99 1017.4
20260510111144 52 227 0.0 0.0 0.00 0.00 0.00 99 1017.2
20260510110639 51 227 0.0 0.0 0.00 0.00 0.00 99 1017.3
20260510110137 51 227 0.0 0.0 0.00 0.00 0.00 99 1017.1
20260510105633 51 246 0.0 0.0 0.00 0.00 0.00 99 1017.1
20260510105132 51 254 0.0 0.0 0.00 0.00 0.00 99 1017.0
20260510104629 51 216 0.0 0.0 0.00 0.00 0.00 99 1016.7
20260510104126 51 218 0.0 0.0 0.00 0.00 0.00 99 1016.8
20260510103623 51 229 0.0 0.0 0.00 0.00 0.00 99 1016.7
20260510103119 51 245 0.0 0.0 0.00 0.00 0.00 99 1016.8
20260510102614 51 247 0.0 0.0 0.00 0.00 0.00 99 1016.5
20260510102110 51 289 0.0 1.0 0.00 0.00 0.00 99 1016.6
20260510101608 51 247 1.0 1.0 0.00 0.00 0.00 99 1016.4
20260510101106 50 221 0.0 0.0 0.00 0.00 0.00 99 1016.4
20260510100602 50 245 0.0 0.0 0.00 0.00 0.00 99 1016.3
20260510100100 51 229 0.0 1.0 0.00 0.00 0.00 99 1016.2
20260510095556 51 224 0.0 0.0 0.00 0.00 0.00 99 1016.2
20260510095055 50 211 0.0 0.0 0.00 0.00 0.00 99 1016.2
20260510094550 50 211 0.0 0.0 0.00 0.00 0.00 99 1016.1
20260510094045 50 211 0.0 0.0 0.00 0.00 0.00 99 1016.4
20260510093542 50 211 0.0 0.0 0.00 0.00 0.00 99 1016.2
20260510093038 50 211 0.0 0.0 0.00 0.00 0.00 99 1016.2
20260510092536 50 211 0.0 0.0 0.00 0.00 0.00 99 1016.1
20260510092035 50 211 0.0 0.0 0.00 0.00 0.00 99 1016.2
20260510091532 50 211 0.0 0.0 0.00 0.00 0.00 99 1016.1
20260510091028 51 211 0.0 0.0 0.00 0.00 0.00 99 1016.3
20260510090525 51 211 0.0 0.0 0.00 0.00 0.00 99 1016.1
20260510090021 51 211 0.0 0.0 0.00 0.00 0.00 99 1015.8
20260510085521 51 211 0.0 0.0 0.00 0.00 0.00 99 1015.8
20260510085017 52 211 0.0 0.0 0.00 0.00 0.00 99 1015.9
20260510084514 52 211 0.0 0.0 0.00 0.00 0.00 99 1015.7
20260510084011 52 211 0.0 0.0 0.00 0.00 0.00 99 1015.8
20260510083508 52 220 0.0 0.0 0.00 0.00 0.00 99 1015.9
20260510083003 52 215 0.0 0.0 0.00 0.00 0.00 99 1015.9
20260510082501 52 216 0.0 0.0 0.00 0.00 0.00 99 1016.0
20260510082000 51 229 0.0 0.0 0.00 0.00 0.00 99 1015.8
20260510081456 51 229 0.0 0.0 0.00 0.00 0.00 99 1015.9
20260510080952 51 236 0.0 0.0 0.00 0.00 0.00 99 1016.0
20260510080450 51 237 0.0 0.0 0.00 0.00 0.00 99 1015.9
20260510075948 52 221 0.0 0.0 0.00 0.00 0.00 99 1015.9
20260510075446 51 244 0.0 0.0 0.00 0.00 0.00 99 1015.9
20260510074942 52 235 0.0 0.0 0.00 0.00 0.00 99 1015.9
20260510074440 52 229 0.0 0.0 0.00 0.00 0.00 99 1015.7
20260510073936 52 236 0.0 0.0 0.00 0.00 0.00 99 1015.4
20260510073431 52 233 0.0 0.0 0.00 0.00 0.00 99 1015.3
20260510072928 52 235 0.0 0.0 0.00 0.00 0.00 99 1015.3
20260510072426 52 236 0.0 0.0 0.00 0.00 0.00 99 1015.2
20260510071925 53 235 0.0 0.0 0.00 0.00 0.00 99 1015.3
20260510071423 53 218 0.0 0.0 0.00 0.00 0.00 99 1015.0
20260510070921 53 229 0.0 0.0 0.00 0.00 0.00 99 1015.0
20260510070418 53 229 0.0 0.0 0.00 0.00 0.00 99 1015.1
20260510065913 53 229 0.0 0.0 0.00 0.00 0.00 99 1015.2
20260510065410 53 228 0.0 0.0 0.00 0.00 0.00 99 1015.3
20260510064906 53 213 0.0 0.0 0.00 0.00 0.00 99 1015.5
20260510064404 53 214 0.0 0.0 0.00 0.00 0.00 99 1015.2
20260510063900 53 214 0.0 0.0 0.00 0.00 0.00 99 1015.3
20260510063357 53 214 0.0 0.0 0.00 0.00 0.00 99 1015.5
20260510062854 53 214 0.0 0.0 0.00 0.00 0.00 99 1015.4
20260510062349 54 214 0.0 0.0 0.00 0.00 0.00 99 1015.3
20260510061845 53 214 0.0 0.0 0.00 0.00 0.00 99 1015.4
20260510061342 53 214 0.0 0.0 0.00 0.00 0.00 99 1015.4
20260510060838 54 214 0.0 0.0 0.00 0.00 0.00 99 1015.1
20260510060335 53 214 0.0 0.0 0.00 0.00 0.00 99 1015.4
20260510055832 53 214 0.0 0.0 0.00 0.00 0.00 99 1015.2
20260510055331 53 214 0.0 0.0 0.00 0.00 0.00 99 1015.3
20260510054830 53 214 0.0 0.0 0.00 0.00 0.00 99 1015.4
20260510054326 53 214 0.0 0.0 0.00 0.00 0.00 99 1015.3
20260510053821 54 214 0.0 0.0 0.00 0.00 0.00 99 1015.4
20260510053317 54 214 0.0 0.0 0.00 0.00 0.00 99 1015.3
20260510052814 54 214 0.0 0.0 0.00 0.00 0.00 99 1015.3
20260510052309 54 214 0.0 0.0 0.00 0.00 0.00 99 1015.3
20260510051806 55 214 0.0 0.0 0.00 0.00 0.00 99 1015.3
20260510051302 54 214 0.0 0.0 0.00 0.00 0.00 99 1015.3
20260510050800 54 214 0.0 0.0 0.00 0.00 0.00 98 1015.2
20260510050256 54 214 0.0 0.0 0.00 0.00 0.00 98 1015.2
20260510045753 54 214 0.0 0.0 0.00 0.00 0.00 97 1015.2
20260510045250 55 214 0.0 0.0 0.00 0.00 0.00 97 1015.2
20260510044747 55 214 0.0 0.0 0.00 0.00 0.00 97 1015.3
20260510044244 55 214 0.0 0.0 0.00 0.00 0.00 97 1015.3
20260510043740 55 214 0.0 0.0 0.00 0.00 0.00 97 1015.3
20260510043237 55 214 0.0 0.0 0.00 0.00 0.00 96 1015.3
20260510042734 55 214 0.0 0.0 0.00 0.00 0.00 95 1015.2
20260510042229 56 214 0.0 0.0 0.00 0.00 0.00 95 1015.1
20260510041727 56 214 0.0 0.0 0.00 0.00 0.00 94 1015.2
20260510041224 56 214 0.0 0.0 0.00 0.00 0.00 94 1015.1
20260510040720 56 214 0.0 0.0 0.00 0.00 0.00 93 1015.1
20260510040217 56 214 0.0 0.0 0.00 0.00 0.00 93 1015.1
20260510035713 56 214 0.0 0.0 0.00 0.00 0.00 91 1015.2
20260510035209 57 214 0.0 0.0 0.00 0.00 0.00 91 1015.1
20260510034705 57 214 0.0 0.0 0.00 0.00 0.00 91 1015.0
20260510034203 57 214 0.0 0.0 0.00 0.00 0.00 91 1015.1
20260510033659 57 214 0.0 0.0 0.00 0.00 0.00 90 1015.0
20260510033157 57 214 0.0 0.0 0.00 0.00 0.00 89 1015.0
20260510032652 58 214 0.0 0.0 0.00 0.00 0.00 88 1015.1
20260510032148 58 214 0.0 0.0 0.00 0.00 0.00 89 1015.1
20260510031644 58 214 0.0 0.0 0.00 0.00 0.00 88 1015.0
20260510031141 58 214 0.0 0.0 0.00 0.00 0.00 88 1015.0
20260510030640 58 214 0.0 0.0 0.00 0.00 0.00 87 1014.9
20260510030138 59 214 0.0 0.0 0.00 0.00 0.00 87 1014.8
20260510025635 59 214 0.0 0.0 0.00 0.00 0.00 86 1014.9
20260510025132 59 214 0.0 0.0 0.00 0.00 0.00 85 1014.8
20260510024629 60 214 0.0 0.0 0.00 0.00 0.00 85 1014.9
20260510024126 60 214 0.0 0.0 0.00 0.00 0.00 84 1014.8
20260510023622 60 214 0.0 0.0 0.00 0.00 0.00 82 1015.0
20260510023119 60 214 0.0 0.0 0.00 0.00 0.00 82 1014.6
20260510022619 60 214 0.0 0.0 0.00 0.00 0.00 81 1014.6
20260510022114 61 214 0.0 0.0 0.00 0.00 0.00 83 1014.7
20260510021610 61 214 0.0 0.0 0.00 0.00 0.00 81 1014.7
20260510021109 62 214 0.0 0.0 0.00 0.00 0.00 78 1014.7
20260510020607 62 214 0.0 0.0 0.00 0.00 0.00 76 1014.6
20260510015559 64 214 0.0 0.0 0.00 0.00 0.00 75 1014.2
20260510015056 64 214 0.0 0.0 0.00 0.00 0.00 71 1014.2
20260510014552 64 214 0.0 0.0 0.00 0.00 0.00 68 1014.2
20260510014049 64 214 0.0 0.0 0.00 0.00 0.00 68 1014.2
20260510013543 65 214 0.0 0.0 0.00 0.00 0.00 69 1014.0
20260510013040 66 213 0.0 1.0 0.00 0.00 0.00 70 1014.0
20260510012533 66 234 0.0 0.0 0.00 0.00 0.00 63 1013.8
20260510012031 67 234 0.0 0.0 0.00 0.00 0.00 63 1013.8
20260510011530 67 233 0.0 0.0 0.00 0.00 0.00 62 1013.7
20260510011026 67 241 0.0 0.0 0.00 0.00 0.00 62 1013.6
20260510010523 68 234 0.0 0.0 0.00 0.00 0.00 60 1013.6
20260510010020 68 232 0.0 0.0 0.00 0.00 0.00 60 1013.6
20260510005515 69 238 0.0 0.0 0.00 0.00 0.00 59 1013.6
20260510005013 69 243 0.0 1.0 0.00 0.00 0.00 59 1013.5
20260510004511 70 237 0.0 0.0 0.00 0.00 0.00 57 1013.5
20260510004009 71 238 0.0 0.0 0.00 0.00 0.00 55 1013.4
20260510003505 71 237 0.0 0.0 0.00 0.00 0.00 56 1013.3
20260510003000 72 237 0.0 0.0 0.00 0.00 0.00 57 1013.2
20260510002456 73 237 0.0 0.0 0.00 0.00 0.00 54 1013.1
20260510001953 74 239 0.0 0.0 0.00 0.00 0.00 54 1013.3
20260510001450 76 238 0.0 0.0 0.00 0.00 0.00 52 1013.1
20260510000948 78 247 0.0 0.0 0.00 0.00 0.00 49 1013.2
20260510000444 79 245 0.0 0.0 0.00 0.00 0.00 46 1013.2
20260509235940 78 245 0.0 0.0 0.00 0.00 0.00 45 1013.1
20260509235437 79 245 0.0 0.0 0.00 0.00 0.00 44 1013.2
20260509234933 79 245 0.0 0.0 0.00 0.00 0.00 44 1013.2
20260509234430 79 236 0.0 1.0 0.00 0.00 0.00 44 1013.1
20260509233929 80 237 0.0 0.0 0.00 0.00 0.00 44 1012.9
20260509233426 80 249 0.0 1.0 0.00 0.00 0.00 42 1013.0
20260509232922 80 223 0.0 0.0 0.00 0.00 0.00 40 1013.0
20260509232420 80 223 0.0 0.0 0.00 0.00 0.00 39 1013.0
20260509231915 80 223 1.0 1.0 0.00 0.00 0.00 42 1012.9
20260509231412 80 223 1.0 1.0 0.00 0.00 0.00 41 1013.1
20260509230910 80 200 1.0 3.0 0.00 0.00 0.00 42 1013.1
20260509230407 81 226 3.0 3.0 0.00 0.00 0.00 40 1013.0
20260509225902 82 236 1.0 1.0 0.00 0.00 0.00 40 1013.2
20260509225359 81 236 0.0 1.0 0.00 0.00 0.00 39 1013.0
20260509224855 82 227 1.0 3.0 0.00 0.00 0.00 39 1013.1
20260509224351 80 201 2.0 3.0 0.00 0.00 0.00 39 1013.2
20260509223849 80 231 2.0 2.0 0.00 0.00 0.00 38 1013.0
20260509223345 82 227 1.0 2.0 0.00 0.00 0.00 40 1012.9
20260509222842 82 303 1.0 3.0 0.00 0.00 0.00 40 1013.1
20260509222337 81 242 1.0 2.0 0.00 0.00 0.00 40 1013.0
20260509221833 80 246 0.0 2.0 0.00 0.00 0.00 39 1012.9
20260509221331 81 291 1.0 6.0 0.00 0.00 0.00 42 1012.9
20260509220831 81 286 1.0 3.0 0.00 0.00 0.00 41 1012.9
20260509220327 84 178 2.0 3.0 0.00 0.00 0.00 39 1012.7
20260509215823 83 259 0.0 1.0 0.00 0.00 0.00 41 1012.7
20260509215320 82 100 1.0 3.0 0.00 0.00 0.00 42 1012.8
20260509214816 81 252 1.0 3.0 0.00 0.00 0.00 41 1012.8
20260509214314 83 206 3.0 3.0 0.00 0.00 0.00 41 1012.6